CES745 ZSPD-NZAA

Flight info

Callsign CES745
Flight time N/A
Altitude 29000
Route +LAMEN/N0472F250 A593 SADLI Y590 BEDAR Y591 BIGIT/N0507F290 Y591 ISPIT Z41 AGIKA G339 PAKDO/N0508F310 G339 UNZ A597 OKOLE/N0504F330 A597 ENOUS/N0494F350 A597 LEKAX/N0498F310 A597 MINET/N0485F350 A597 DUGAN
Aircraft B77W/H-SDE1E2E3FGHIJ2J3J4J5M1RWXY/LB1D1

Departure

Time N/A
Airport Shanghai Pudong International Airport (ZSPD)

Arrival

Time 2026-05-04 05:28
Airport Auckland International Airport (NZAA)
Time Latitude Longitude Altitude Speed Heading
2026-05-03 20:15 26.32914 134.35420 29007 ft 514 kts 148°
2026-05-03 20:15 26.27066 134.39923 29002 ft 514 kts 148°
2026-05-03 20:16 26.21179 134.44449 29003 ft 514 kts 148°
2026-05-03 20:16 26.15296 134.48967 29016 ft 513 kts 148°
2026-05-03 20:17 26.09421 134.53473 29002 ft 513 kts 148°
2026-05-03 20:17 26.03553 134.57969 28997 ft 512 kts 148°
2026-05-03 20:18 25.97686 134.62459 29011 ft 512 kts 148°
2026-05-03 20:18 25.91825 134.66939 29010 ft 512 kts 148°
2026-05-03 20:19 25.85958 134.71416 29014 ft 511 kts 148°
2026-05-03 20:19 25.80095 134.75886 29010 ft 511 kts 148°
2026-05-03 20:20 25.74239 134.80344 29017 ft 511 kts 148°
2026-05-03 20:20 25.68377 134.84802 29015 ft 511 kts 148°
2026-05-03 20:21 25.62526 134.89245 29016 ft 510 kts 148°
2026-05-03 20:21 25.56702 134.93667 29017 ft 510 kts 148°
2026-05-03 20:22 25.50844 134.98108 29018 ft 510 kts 148°
2026-05-03 20:22 25.44833 135.02246 29024 ft 509 kts 151°
2026-05-03 20:23 25.38723 135.06203 29019 ft 509 kts 152°
2026-05-03 20:23 25.32614 135.10156 29019 ft 509 kts 151°
2026-05-03 20:24 25.26520 135.14123 29020 ft 509 kts 151°
2026-05-03 20:24 25.20420 135.18105 29022 ft 509 kts 151°
2026-05-03 20:25 25.14317 135.22085 29024 ft 510 kts 151°
2026-05-03 20:25 25.08217 135.26060 29027 ft 509 kts 151°
2026-05-03 20:26 25.02110 135.30032 29021 ft 510 kts 151°
2026-05-03 20:26 24.96001 135.33999 29023 ft 510 kts 151°
2026-05-03 20:27 24.89887 135.37966 29023 ft 510 kts 151°
2026-05-03 20:27 24.83809 135.41905 29027 ft 510 kts 151°
2026-05-03 20:28 24.77689 135.45866 29028 ft 511 kts 151°
2026-05-03 20:28 24.71562 135.49827 29030 ft 511 kts 151°
2026-05-03 20:29 24.65435 135.53785 29029 ft 510 kts 151°
2026-05-03 20:29 24.59312 135.57734 29033 ft 510 kts 151°
2026-05-03 20:30 24.53192 135.61678 29035 ft 510 kts 151°
2026-05-03 20:30 24.47080 135.65612 29036 ft 509 kts 151°
2026-05-03 20:31 24.40961 135.69545 29036 ft 509 kts 151°
2026-05-03 20:31 24.34847 135.73472 29038 ft 509 kts 151°
2026-05-03 20:32 24.28737 135.77391 29033 ft 509 kts 151°
2026-05-03 20:32 24.22619 135.81312 29036 ft 509 kts 151°
2026-05-03 20:33 24.16509 135.85221 29038 ft 509 kts 151°
2026-05-03 20:33 24.10381 135.89138 29037 ft 510 kts 151°
2026-05-03 20:34 24.04259 135.93048 29039 ft 510 kts 151°
2026-05-03 20:34 23.98124 135.96960 29039 ft 510 kts 151°
2026-05-03 20:35 23.93023 136.00210 29039 ft 511 kts 151°
2026-05-03 20:35 23.86884 136.04118 29044 ft 511 kts 151°
2026-05-03 20:36 23.80740 136.08024 29041 ft 511 kts 151°
2026-05-03 20:36 23.74551 136.11954 29039 ft 511 kts 151°
2026-05-03 20:37 23.68399 136.15858 29040 ft 512 kts 151°
2026-05-03 20:37 23.62244 136.19758 29040 ft 512 kts 151°
2026-05-03 20:38 23.56080 136.23660 29042 ft 513 kts 151°
2026-05-03 20:38 23.49903 136.27566 29043 ft 513 kts 151°
2026-05-03 20:39 23.43730 136.31466 29043 ft 513 kts 151°
2026-05-03 20:39 23.37560 136.35357 29042 ft 513 kts 151°
2026-05-03 20:40 23.31390 136.39248 29045 ft 513 kts 151°
2026-05-03 20:40 23.25210 136.43139 29043 ft 513 kts 151°
2026-05-03 20:41 23.19038 136.47020 29043 ft 512 kts 151°
2026-05-03 20:41 23.12865 136.50898 29045 ft 512 kts 151°
2026-05-03 20:42 23.06699 136.54766 29044 ft 512 kts 151°
2026-05-03 20:42 23.00531 136.58633 29045 ft 512 kts 151°
2026-05-03 20:43 22.94361 136.62498 29042 ft 512 kts 151°
2026-05-03 20:43 22.88192 136.66357 29048 ft 512 kts 151°
2026-05-03 20:44 22.82019 136.70215 29045 ft 512 kts 151°
2026-05-03 20:44 22.75837 136.74072 29042 ft 513 kts 151°
2026-05-03 20:45 22.69647 136.77931 29043 ft 513 kts 151°
2026-05-03 20:45 22.63495 136.81764 29041 ft 513 kts 151°
2026-05-03 20:46 22.57304 136.85617 29041 ft 513 kts 151°
2026-05-03 20:46 22.51113 136.89465 29044 ft 513 kts 151°
2026-05-03 20:47 22.44922 136.93310 29043 ft 513 kts 151°
2026-05-03 20:47 22.38729 136.97152 29046 ft 513 kts 151°
2026-05-03 20:48 22.32494 137.01017 29041 ft 513 kts 151°
2026-05-03 20:48 22.26293 137.04853 29041 ft 514 kts 151°
2026-05-03 20:49 22.20084 137.08692 29040 ft 514 kts 151°
2026-05-03 20:49 22.13870 137.12532 29040 ft 515 kts 151°
2026-05-03 20:50 22.07649 137.16370 29039 ft 515 kts 151°
2026-05-03 20:50 22.01422 137.20210 29041 ft 516 kts 151°
2026-05-03 20:51 21.95233 137.24021 29040 ft 516 kts 151°
2026-05-03 20:51 21.88960 137.27881 29039 ft 516 kts 151°
2026-05-03 20:52 21.82730 137.31709 29042 ft 516 kts 151°
2026-05-03 20:52 21.76538 137.35509 29035 ft 516 kts 151°
2026-05-03 20:53 21.70256 137.39364 29035 ft 516 kts 151°
2026-05-03 20:53 21.64021 137.43188 29031 ft 516 kts 151°
2026-05-03 20:54 21.57773 137.47011 29033 ft 516 kts 151°
2026-05-03 20:54 21.48405 137.52737 29036 ft 516 kts 151°
2026-05-03 20:55 21.42201 137.56524 29035 ft 516 kts 151°
2026-05-03 20:55 21.35912 137.60362 29037 ft 517 kts 151°
2026-05-03 20:56 21.29658 137.64173 29035 ft 517 kts 151°
2026-05-03 20:56 21.23404 137.67983 29033 ft 517 kts 151°
2026-05-03 20:57 21.17146 137.71786 29031 ft 517 kts 151°
2026-05-03 20:57 21.10884 137.75593 29035 ft 517 kts 151°
2026-05-03 20:58 21.04623 137.79395 29034 ft 517 kts 151°
2026-05-03 20:58 20.98565 137.83556 29032 ft 518 kts 143°
2026-05-03 20:59 20.93172 137.88684 29040 ft 519 kts 138°
2026-05-03 20:59 20.87859 137.93925 29033 ft 520 kts 138°
2026-05-03 21:00 20.84326 137.97378 29033 ft 520 kts 138°
2026-05-03 21:00 20.77158 138.04326 29033 ft 520 kts 139°
2026-05-03 21:01 20.71787 138.09509 29032 ft 520 kts 139°
2026-05-03 21:01 20.66419 138.14687 29028 ft 520 kts 139°
2026-05-03 21:02 20.61051 138.19862 29031 ft 520 kts 139°
2026-05-03 21:02 20.55666 138.25048 29113 ft 524 kts 139°
2026-05-03 21:03 20.52955 138.27657 29394 ft 524 kts 139°
2026-05-03 21:03 20.50252 138.30258 29763 ft 523 kts 139°
2026-05-03 21:03 20.47553 138.32854 30099 ft 522 kts 139°
2026-05-03 21:03 20.44854 138.35449 30354 ft 523 kts 139°
2026-05-03 21:04 20.42158 138.38040 30617 ft 522 kts 139°
2026-05-03 21:04 20.39459 138.40631 30906 ft 522 kts 139°
2026-05-03 21:04 20.34052 138.45818 31009 ft 523 kts 139°
2026-05-03 21:05 20.28657 138.50989 31026 ft 521 kts 139°
2026-05-03 21:05 20.23273 138.56145 31031 ft 520 kts 139°
2026-05-03 21:06 20.17894 138.61293 31031 ft 519 kts 140°
2026-05-03 21:06 20.12511 138.66436 31026 ft 520 kts 140°
2026-05-03 21:07 20.07116 138.71586 31029 ft 522 kts 140°
2026-05-03 21:07 20.01705 138.76747 31028 ft 523 kts 140°
2026-05-03 21:08 19.96284 138.81914 31021 ft 524 kts 140°
2026-05-03 21:08 19.90853 138.87085 31025 ft 524 kts 140°
2026-05-03 21:09 19.85413 138.92259 31020 ft 525 kts 140°
2026-05-03 21:09 19.79964 138.97434 31017 ft 525 kts 140°
2026-05-03 21:10 19.74521 139.02602 31023 ft 525 kts 140°
2026-05-03 21:10 19.69077 139.07767 31025 ft 525 kts 140°
2026-05-03 21:11 19.63621 139.12934 31021 ft 526 kts 140°
2026-05-03 21:11 19.58165 139.18100 31023 ft 526 kts 140°
2026-05-03 21:12 19.52705 139.23266 31022 ft 526 kts 140°
2026-05-03 21:12 19.47238 139.28431 31017 ft 527 kts 140°
2026-05-03 21:13 19.41769 139.33592 31020 ft 527 kts 140°
2026-05-03 21:13 19.37212 139.37889 31020 ft 528 kts 140°
2026-05-03 21:14 19.31727 139.43057 31020 ft 528 kts 140°
2026-05-03 21:14 19.26232 139.48232 31018 ft 529 kts 140°
2026-05-03 21:15 19.20734 139.53403 31020 ft 529 kts 140°
2026-05-03 21:15 19.15227 139.58578 31017 ft 530 kts 140°
2026-05-03 21:16 19.09715 139.63751 31017 ft 530 kts 141°
2026-05-03 21:16 19.04192 139.68931 31016 ft 531 kts 141°
2026-05-03 21:17 18.98673 139.74102 31015 ft 531 kts 141°
2026-05-03 21:17 18.93140 139.79282 31016 ft 531 kts 141°
2026-05-03 21:18 18.87611 139.84456 31014 ft 531 kts 141°
2026-05-03 21:18 18.82072 139.89629 31015 ft 532 kts 141°
2026-05-03 21:19 18.76527 139.94808 31013 ft 532 kts 141°
2026-05-03 21:19 18.70977 139.99984 31012 ft 533 kts 141°
2026-05-03 21:20 18.65425 140.05159 31012 ft 533 kts 141°
2026-05-03 21:20 18.59868 140.10332 31013 ft 533 kts 141°
2026-05-03 21:21 18.54295 140.15516 31010 ft 534 kts 141°
2026-05-03 21:21 18.48693 140.20721 31013 ft 534 kts 141°
2026-05-03 21:22 18.43112 140.25903 31012 ft 534 kts 141°
2026-05-03 21:22 18.37535 140.31077 31010 ft 534 kts 141°
2026-05-03 21:23 18.31960 140.36244 31011 ft 534 kts 141°
2026-05-03 21:23 18.26375 140.41416 31011 ft 534 kts 141°
2026-05-03 21:24 18.20798 140.46576 31012 ft 534 kts 141°
2026-05-03 21:24 18.15222 140.51731 31007 ft 534 kts 141°
2026-05-03 21:25 18.09647 140.56880 31007 ft 533 kts 141°
2026-05-03 21:25 18.04071 140.62025 31007 ft 533 kts 141°
2026-05-03 21:26 17.98498 140.67163 31003 ft 533 kts 141°
2026-05-03 21:26 17.92919 140.72301 31005 ft 533 kts 141°
2026-05-03 21:27 17.87341 140.77435 31005 ft 533 kts 141°
2026-05-03 21:27 17.81766 140.82562 31005 ft 533 kts 141°
2026-05-03 21:28 17.76185 140.87688 31004 ft 533 kts 141°
2026-05-03 21:28 17.70605 140.92811 31003 ft 533 kts 141°
2026-05-03 21:29 17.65025 140.97928 31003 ft 533 kts 141°
2026-05-03 21:29 17.59442 141.03044 30999 ft 533 kts 141°
2026-05-03 21:30 17.53862 141.08153 30997 ft 533 kts 141°
2026-05-03 21:30 17.48281 141.13260 30999 ft 533 kts 141°
2026-05-03 21:31 17.42703 141.18360 31002 ft 533 kts 141°
2026-05-03 21:31 17.37120 141.23458 31000 ft 532 kts 141°
2026-05-03 21:32 17.31542 141.28547 30996 ft 532 kts 141°
2026-05-03 21:32 17.25971 141.33627 30999 ft 531 kts 140°
2026-05-03 21:33 17.20397 141.38705 30995 ft 531 kts 140°
2026-05-03 21:33 17.14829 141.43773 31000 ft 531 kts 140°
2026-05-03 21:34 17.09257 141.48839 30997 ft 530 kts 140°
2026-05-03 21:34 17.03691 141.53895 30997 ft 530 kts 140°
2026-05-03 21:35 16.98135 141.58942 30995 ft 529 kts 140°
2026-05-03 21:35 16.92575 141.63988 30995 ft 529 kts 140°
2026-05-03 21:36 16.87025 141.69020 30991 ft 528 kts 140°
2026-05-03 21:36 16.81479 141.74043 30992 ft 528 kts 140°
2026-05-03 21:37 16.75932 141.79064 30992 ft 528 kts 140°
2026-05-03 21:37 16.70390 141.84077 30992 ft 527 kts 140°
2026-05-03 21:38 16.64851 141.89083 30992 ft 527 kts 140°
2026-05-03 21:38 16.59314 141.94083 30995 ft 527 kts 140°
2026-05-03 21:39 16.53782 141.99090 30990 ft 527 kts 140°
2026-05-03 21:39 16.48263 142.04115 30993 ft 526 kts 140°
2026-05-03 21:40 16.42746 142.09132 30991 ft 526 kts 140°
2026-05-03 21:40 16.37233 142.14138 30988 ft 526 kts 140°
2026-05-03 21:41 16.31724 142.19135 30984 ft 525 kts 140°
2026-05-03 21:41 16.26217 142.24128 30988 ft 525 kts 140°
2026-05-03 21:42 16.20714 142.29112 30984 ft 524 kts 140°
2026-05-03 21:42 16.15215 142.34089 30987 ft 524 kts 140°
2026-05-03 21:43 16.09716 142.39062 30984 ft 524 kts 140°
2026-05-03 21:43 16.04214 142.44031 30985 ft 524 kts 140°
2026-05-03 21:44 15.98710 142.48992 30985 ft 524 kts 140°
2026-05-03 21:44 15.93202 142.53951 30981 ft 524 kts 140°
2026-05-03 21:45 15.87694 142.58909 30979 ft 523 kts 140°
2026-05-03 21:45 15.82202 142.63853 30977 ft 523 kts 140°
2026-05-03 21:46 15.76709 142.68794 30975 ft 522 kts 140°
2026-05-03 21:46 15.71220 142.73725 30977 ft 522 kts 140°
2026-05-03 21:47 15.65700 142.78681 30975 ft 521 kts 140°
2026-05-03 21:47 15.60220 142.83597 30974 ft 521 kts 140°
2026-05-03 21:48 15.54728 142.88521 30978 ft 521 kts 140°
2026-05-03 21:48 15.49244 142.93435 30972 ft 521 kts 140°
2026-05-03 21:49 15.43756 142.98346 30976 ft 521 kts 140°
2026-05-03 21:49 15.38266 143.03257 30969 ft 521 kts 140°
2026-05-03 21:50 15.32775 143.08166 30971 ft 521 kts 140°
2026-05-03 21:50 15.28213 143.12242 30973 ft 521 kts 140°
2026-05-03 21:51 15.22723 143.17141 30974 ft 521 kts 140°
2026-05-03 21:51 15.17231 143.22040 30968 ft 521 kts 140°
2026-05-03 21:52 15.11741 143.26936 30964 ft 521 kts 140°
2026-05-03 21:52 15.06259 143.31819 30975 ft 520 kts 140°
2026-05-03 21:53 15.00764 143.36713 30960 ft 520 kts 140°
2026-05-03 21:53 14.95285 143.41585 30957 ft 520 kts 140°
2026-05-03 21:54 14.89802 143.46459 30959 ft 519 kts 140°
2026-05-03 21:54 14.84321 143.51330 30953 ft 519 kts 140°
2026-05-03 21:55 14.78842 143.56193 30969 ft 519 kts 140°
2026-05-03 21:55 14.73374 143.61046 30965 ft 518 kts 141°
2026-05-03 21:56 14.62551 143.70615 30964 ft 517 kts 141°
2026-05-03 21:57 14.57088 143.75434 30966 ft 516 kts 141°
2026-05-03 21:57 14.51631 143.80253 30960 ft 516 kts 141°
2026-05-03 21:58 14.46177 143.85060 30960 ft 516 kts 141°
2026-05-03 21:58 14.40717 143.89871 30956 ft 516 kts 141°
2026-05-03 21:59 14.35255 143.94683 30957 ft 516 kts 141°
2026-05-03 21:59 14.29801 143.99485 30956 ft 516 kts 141°
2026-05-03 22:00 14.24334 144.04295 30955 ft 517 kts 141°
2026-05-03 22:00 14.18868 144.09099 30958 ft 516 kts 140°
2026-05-03 22:01 14.13398 144.13902 30955 ft 516 kts 140°
2026-05-03 22:01 14.07933 144.18700 30953 ft 516 kts 140°
2026-05-03 22:02 14.02471 144.23494 30955 ft 516 kts 140°
2026-05-03 22:02 13.97006 144.28284 30952 ft 515 kts 140°
2026-05-03 22:03 13.91548 144.33066 30946 ft 515 kts 140°
2026-05-03 22:03 13.86090 144.37846 30941 ft 515 kts 140°
2026-05-03 22:04 13.80638 144.42618 30934 ft 514 kts 140°
2026-05-03 22:04 13.75226 144.47351 30939 ft 514 kts 140°
2026-05-03 22:05 13.69778 144.52111 30944 ft 513 kts 140°
2026-05-03 22:05 13.64340 144.56861 30948 ft 513 kts 140°
2026-05-03 22:06 13.58908 144.61604 30958 ft 512 kts 140°
2026-05-03 22:06 13.53476 144.66346 30973 ft 512 kts 140°
2026-05-03 22:07 13.48044 144.71081 30982 ft 512 kts 139°
2026-05-03 22:07 13.43013 144.76238 30978 ft 511 kts 129°
2026-05-03 22:08 13.38561 144.81933 30982 ft 511 kts 128°
2026-05-03 22:08 13.34106 144.87627 30967 ft 511 kts 128°
2026-05-03 22:09 13.29621 144.93290 30951 ft 511 kts 129°
2026-05-03 22:10 13.22862 145.01772 30935 ft 512 kts 129°
2026-05-03 22:10 13.18356 145.07429 30934 ft 512 kts 129°
2026-05-03 22:11 13.13852 145.13084 30933 ft 512 kts 129°
2026-05-03 22:11 13.09372 145.18705 30937 ft 512 kts 129°
2026-05-03 22:12 13.04866 145.24358 30941 ft 512 kts 129°
2026-05-03 22:12 13.00332 145.30047 30941 ft 512 kts 129°
2026-05-03 22:13 12.95857 145.35659 30941 ft 512 kts 129°
2026-05-03 22:13 12.91351 145.41309 30941 ft 512 kts 128°
2026-05-03 22:14 12.86846 145.46954 30942 ft 512 kts 129°
2026-05-03 22:14 12.82334 145.52602 30942 ft 512 kts 128°
2026-05-03 22:15 12.77818 145.58253 30939 ft 512 kts 128°
2026-05-03 22:15 12.73303 145.63902 30939 ft 512 kts 128°
2026-05-03 22:16 12.68788 145.69545 30939 ft 512 kts 128°
2026-05-03 22:16 12.64269 145.75189 30939 ft 512 kts 128°
2026-05-03 22:17 12.59756 145.80825 30939 ft 512 kts 128°
2026-05-03 22:17 12.55246 145.86451 30937 ft 511 kts 128°
2026-05-03 22:18 12.50739 145.92071 30937 ft 510 kts 128°
2026-05-03 22:18 12.46240 145.97677 30937 ft 510 kts 128°
2026-05-03 22:19 12.41740 146.03282 30937 ft 509 kts 128°
2026-05-03 22:19 12.37238 146.08881 30937 ft 509 kts 129°
2026-05-03 22:20 12.32735 146.14464 30935 ft 509 kts 129°
2026-05-03 22:20 12.28231 146.20047 30938 ft 509 kts 129°
2026-05-03 22:21 12.23725 146.25632 30939 ft 509 kts 129°
2026-05-03 22:21 12.19225 146.31206 30934 ft 509 kts 129°
2026-05-03 22:22 12.14721 146.36783 30934 ft 509 kts 129°
2026-05-03 22:22 12.10214 146.42361 30934 ft 509 kts 129°
2026-05-03 22:23 12.05706 146.47936 30931 ft 509 kts 129°
2026-05-03 22:23 12.01196 146.53510 30931 ft 509 kts 129°
2026-05-03 22:24 11.96684 146.59083 30932 ft 509 kts 129°
2026-05-03 22:24 11.92206 146.64613 30932 ft 509 kts 129°
2026-05-03 22:25 11.87698 146.70174 30932 ft 508 kts 129°
2026-05-03 22:25 11.83189 146.75734 30928 ft 508 kts 129°
2026-05-03 22:26 11.78683 146.81286 30928 ft 508 kts 129°
2026-05-03 22:26 11.74180 146.86834 30928 ft 508 kts 129°
2026-05-03 22:27 11.69673 146.92384 30929 ft 507 kts 129°
2026-05-03 22:27 11.65201 146.97888 30926 ft 507 kts 129°
2026-05-03 22:28 11.60700 147.03424 30928 ft 507 kts 129°
2026-05-03 22:28 11.56081 147.08862 30911 ft 508 kts 135°
2026-05-03 22:29 11.50652 147.13461 30925 ft 508 kts 146°
2026-05-03 22:29 11.44691 147.17237 30921 ft 508 kts 148°
2026-05-03 22:30 11.38653 147.20973 30923 ft 508 kts 148°
2026-05-03 22:30 11.32641 147.24742 30922 ft 507 kts 148°
2026-05-03 22:31 11.26649 147.28530 30926 ft 506 kts 148°
2026-05-03 22:31 11.20706 147.32287 30907 ft 506 kts 148°
2026-05-03 22:32 11.14723 147.36064 30922 ft 506 kts 148°
2026-05-03 22:32 11.08744 147.39837 30917 ft 506 kts 148°
2026-05-03 22:33 11.02768 147.43606 30917 ft 505 kts 148°
2026-05-03 22:33 10.96829 147.47351 30918 ft 505 kts 148°
2026-05-03 22:34 10.90853 147.51115 30918 ft 505 kts 148°
2026-05-03 22:34 10.84877 147.54879 30921 ft 505 kts 148°
2026-05-03 22:35 10.78895 147.58645 30911 ft 506 kts 148°
2026-05-03 22:35 10.72946 147.62388 30920 ft 506 kts 148°
2026-05-03 22:36 10.66954 147.66158 30919 ft 506 kts 148°
2026-05-03 22:36 10.60962 147.69924 30918 ft 506 kts 148°
2026-05-03 22:37 10.54972 147.73688 30907 ft 506 kts 148°
2026-05-03 22:37 10.48988 147.77448 30918 ft 506 kts 148°
2026-05-03 22:38 10.43047 147.81178 30916 ft 505 kts 148°
2026-05-03 22:38 10.37072 147.84931 30916 ft 504 kts 148°
2026-05-03 22:39 10.31113 147.88676 30916 ft 504 kts 147°
2026-05-03 22:39 10.25161 147.92416 30919 ft 503 kts 148°
2026-05-03 22:40 10.19254 147.96125 30906 ft 502 kts 148°
2026-05-03 22:40 10.13306 147.99859 30923 ft 502 kts 148°
2026-05-03 22:41 10.07365 148.03586 30916 ft 502 kts 148°
2026-05-03 22:41 10.01421 148.07312 30916 ft 502 kts 148°
2026-05-03 22:42 9.95515 148.11011 30918 ft 502 kts 148°
2026-05-03 22:42 9.89573 148.14744 30907 ft 502 kts 147°
2026-05-03 22:43 9.83632 148.18462 30908 ft 502 kts 148°
2026-05-03 22:43 9.77693 148.22174 30905 ft 501 kts 148°
2026-05-03 22:44 9.71760 148.25885 30918 ft 501 kts 147°
2026-05-03 22:44 9.65870 148.29567 30904 ft 500 kts 147°
2026-05-03 22:45 9.59953 148.33271 30914 ft 499 kts 147°
2026-05-03 22:45 9.54054 148.36959 30914 ft 498 kts 147°
2026-05-03 22:46 9.48160 148.40640 30909 ft 497 kts 146°
2026-05-03 22:46 9.42313 148.44291 30906 ft 497 kts 146°
2026-05-03 22:47 9.36431 148.47962 30906 ft 497 kts 146°
2026-05-03 22:47 9.30536 148.51640 30911 ft 498 kts 146°
2026-05-03 22:48 9.24635 148.55322 30910 ft 498 kts 146°
2026-05-03 22:48 9.18771 148.58975 30912 ft 499 kts 146°
2026-05-03 22:49 9.12860 148.62658 30912 ft 499 kts 146°
2026-05-03 22:49 9.06943 148.66343 30911 ft 499 kts 146°
2026-05-03 22:50 9.01026 148.70030 30906 ft 500 kts 146°
2026-05-03 22:50 8.95100 148.73718 30901 ft 500 kts 147°
2026-05-03 22:51 8.89215 148.77379 30909 ft 500 kts 147°
2026-05-03 22:51 8.83283 148.81068 30910 ft 500 kts 147°
2026-05-03 22:52 8.77357 148.84753 30904 ft 500 kts 147°
2026-05-03 22:52 8.71472 148.88411 30906 ft 500 kts 147°
2026-05-03 22:53 8.65550 148.92089 30907 ft 499 kts 147°
2026-05-03 22:53 8.59635 148.95764 30895 ft 499 kts 147°
2026-05-03 22:54 8.53721 148.99434 30901 ft 499 kts 147°
2026-05-03 22:54 8.47805 149.03104 30910 ft 499 kts 147°
2026-05-03 22:55 8.41925 149.06753 30895 ft 499 kts 147°
2026-05-03 22:55 8.36005 149.10423 30889 ft 500 kts 147°
2026-05-03 22:56 8.30079 149.14095 30891 ft 500 kts 147°
2026-05-03 22:56 8.24150 149.17770 30895 ft 500 kts 147°
2026-05-03 22:57 8.18259 149.21421 30895 ft 500 kts 147°
2026-05-03 22:57 8.12327 149.25094 30887 ft 501 kts 147°
2026-05-03 22:58 8.06383 149.28773 30906 ft 501 kts 147°
2026-05-03 22:58 8.00432 149.32457 30891 ft 502 kts 147°
2026-05-03 22:59 7.94520 149.36113 30895 ft 502 kts 147°
2026-05-03 22:59 7.88569 149.39792 30901 ft 502 kts 147°
2026-05-03 23:00 7.82610 149.43476 30900 ft 502 kts 147°
2026-05-03 23:00 7.76692 149.47132 30885 ft 502 kts 147°
2026-05-03 23:01 7.70740 149.50809 30890 ft 502 kts 147°
2026-05-03 23:01 7.64791 149.54484 30890 ft 501 kts 147°
2026-05-03 23:02 7.58843 149.58155 30899 ft 501 kts 147°
2026-05-03 23:02 7.52901 149.61820 30890 ft 501 kts 147°
2026-05-03 23:03 7.46998 149.65463 30892 ft 501 kts 148°
2026-05-03 23:03 7.41056 149.69129 30886 ft 501 kts 148°
2026-05-03 23:04 7.35116 149.72791 30886 ft 501 kts 148°
2026-05-03 23:04 7.29173 149.76453 30897 ft 501 kts 148°
2026-05-03 23:05 7.23267 149.80091 30895 ft 501 kts 148°
2026-05-03 23:05 7.17322 149.83754 30885 ft 501 kts 148°
2026-05-03 23:06 7.11381 149.87414 30901 ft 501 kts 148°
2026-05-03 23:06 7.05433 149.91077 30890 ft 501 kts 148°
2026-05-03 23:07 6.99531 149.94714 30896 ft 500 kts 148°
2026-05-03 23:07 6.93589 149.98362 30899 ft 501 kts 148°
2026-05-03 23:08 6.87641 150.02016 30887 ft 501 kts 148°
2026-05-03 23:08 6.81689 150.05677 30888 ft 502 kts 148°
2026-05-03 23:09 6.75728 150.09340 30880 ft 502 kts 148°
2026-05-03 23:09 6.69812 150.12970 30893 ft 502 kts 148°
2026-05-03 23:10 6.63861 150.16630 30890 ft 502 kts 148°
2026-05-03 23:10 6.57914 150.20289 30879 ft 501 kts 148°
2026-05-03 23:11 6.51976 150.23935 30888 ft 499 kts 148°
2026-05-03 23:11 6.46092 150.27544 30888 ft 498 kts 148°
2026-05-03 23:12 6.40181 150.31170 30891 ft 497 kts 148°
2026-05-03 23:12 6.34277 150.34791 30898 ft 497 kts 148°
2026-05-03 23:13 6.28371 150.38414 30888 ft 497 kts 148°
2026-05-03 23:13 6.22468 150.42035 30891 ft 497 kts 148°
2026-05-03 23:14 6.16601 150.45631 30891 ft 497 kts 148°
2026-05-03 23:14 6.10693 150.49252 30894 ft 497 kts 149°
2026-05-03 23:15 6.04788 150.52872 30898 ft 498 kts 149°
2026-05-03 23:15 5.98885 150.56509 30890 ft 498 kts 148°
2026-05-03 23:16 5.93025 150.60129 30901 ft 497 kts 148°
2026-05-03 23:16 5.87204 150.63719 30892 ft 497 kts 149°
2026-05-03 23:17 5.81323 150.67346 30890 ft 497 kts 149°
2026-05-03 23:17 5.75429 150.70979 30894 ft 497 kts 149°
2026-05-03 23:18 5.69569 150.74590 30895 ft 498 kts 149°
2026-05-03 23:18 5.63669 150.78225 30911 ft 498 kts 149°
2026-05-03 23:19 5.57752 150.81869 30902 ft 499 kts 149°
2026-05-03 23:19 5.51835 150.85515 30900 ft 500 kts 149°
2026-05-03 23:20 5.45898 150.89166 30899 ft 500 kts 149°
2026-05-03 23:20 5.40011 150.92791 30890 ft 500 kts 148°
2026-05-03 23:21 5.34070 150.96447 30959 ft 503 kts 148°
2026-05-03 23:21 5.31087 150.98282 31182 ft 503 kts 148°
2026-05-03 23:21 5.28104 151.00117 31512 ft 501 kts 148°
2026-05-03 23:21 5.25136 151.01941 31815 ft 500 kts 148°
2026-05-03 23:22 5.19246 151.05563 32288 ft 501 kts 148°
2026-05-03 23:22 5.16273 151.07394 32534 ft 501 kts 148°
2026-05-03 23:22 5.13310 151.09217 32793 ft 500 kts 148°
2026-05-03 23:23 5.07364 151.12877 32882 ft 501 kts 148°
2026-05-03 23:23 5.01431 151.16526 32904 ft 501 kts 149°
2026-05-03 23:24 4.95531 151.20140 32901 ft 500 kts 148°
2026-05-03 23:24 4.89602 151.23787 32896 ft 501 kts 148°
2026-05-03 23:25 4.83663 151.27425 32903 ft 499 kts 148°
2026-05-03 23:25 4.78463 151.30625 32909 ft 499 kts 148°
2026-05-03 23:26 4.72584 151.34232 32908 ft 498 kts 148°
2026-05-03 23:26 4.66680 151.37853 32906 ft 497 kts 148°
2026-05-03 23:27 4.60779 151.41477 32900 ft 497 kts 148°
2026-05-03 23:27 4.54873 151.45104 32919 ft 498 kts 148°
2026-05-03 23:28 4.49004 151.48704 32920 ft 499 kts 148°
2026-05-03 23:28 4.43078 151.52339 32902 ft 499 kts 148°
2026-05-03 23:29 4.37145 151.55977 32906 ft 500 kts 148°
2026-05-03 23:29 4.31206 151.59617 32923 ft 501 kts 148°
2026-05-03 23:30 4.25264 151.63261 32917 ft 501 kts 148°
2026-05-03 23:30 4.19374 151.66875 32915 ft 500 kts 148°
2026-05-03 23:31 4.13441 151.70507 32904 ft 501 kts 148°
2026-05-03 23:31 4.07496 151.74150 32919 ft 500 kts 148°
2026-05-03 23:32 4.01543 151.77791 32921 ft 501 kts 148°
2026-05-03 23:32 3.95635 151.81406 32920 ft 500 kts 148°
2026-05-03 23:33 3.89710 151.85053 32901 ft 499 kts 147°
2026-05-03 23:33 3.83808 151.88716 32918 ft 498 kts 148°
2026-05-03 23:34 3.77901 151.92310 32919 ft 496 kts 148°
2026-05-03 23:34 3.72040 151.95861 32917 ft 497 kts 148°
2026-05-03 23:35 3.66138 151.99470 32919 ft 498 kts 148°
2026-05-03 23:35 3.60213 152.03093 32918 ft 500 kts 148°
2026-05-03 23:36 3.54283 152.06725 32901 ft 500 kts 148°
2026-05-03 23:36 3.48382 152.10326 32908 ft 499 kts 148°
2026-05-03 23:37 3.42460 152.13945 32917 ft 499 kts 148°
2026-05-03 23:37 3.36544 152.17573 32922 ft 499 kts 148°
2026-05-03 23:38 3.30626 152.21189 32921 ft 497 kts 148°
2026-05-03 23:38 3.24779 152.24773 32919 ft 495 kts 148°
2026-05-03 23:39 3.18900 152.28359 32899 ft 495 kts 148°
2026-05-03 23:39 3.13028 152.31942 32915 ft 493 kts 148°
2026-05-03 23:40 3.07171 152.35518 32919 ft 492 kts 148°
2026-05-03 23:40 3.01316 152.39106 32898 ft 495 kts 147°
2026-05-03 23:41 2.95479 152.42683 32920 ft 496 kts 148°
2026-05-03 23:41 2.89531 152.46251 32919 ft 500 kts 148°
2026-05-03 23:42 2.83598 152.49884 32919 ft 501 kts 147°
2026-05-03 23:42 2.77645 152.53555 32893 ft 502 kts 147°
2026-05-03 23:43 2.71715 152.57192 32922 ft 504 kts 148°
2026-05-03 23:43 2.65737 152.60842 32916 ft 502 kts 148°
2026-05-03 23:44 2.59772 152.64477 32911 ft 501 kts 147°
2026-05-03 23:44 2.53832 152.68097 32911 ft 499 kts 147°
2026-05-03 23:45 2.47909 152.71713 32914 ft 498 kts 147°
2026-05-03 23:45 2.42033 152.75302 32892 ft 498 kts 147°
2026-05-03 23:46 2.36127 152.78907 32916 ft 497 kts 147°
2026-05-03 23:46 2.30219 152.82512 32909 ft 497 kts 147°
2026-05-03 23:47 2.24310 152.86116 32908 ft 497 kts 147°
2026-05-03 23:47 2.18443 152.89695 32909 ft 497 kts 147°
2026-05-03 23:48 2.12538 152.93295 32910 ft 497 kts 147°
2026-05-03 23:48 2.06633 152.96898 32909 ft 497 kts 147°
2026-05-03 23:49 2.00731 153.00498 32912 ft 497 kts 147°
2026-05-03 23:49 1.94866 153.04075 32912 ft 497 kts 147°
2026-05-03 23:50 1.88965 153.07674 32911 ft 497 kts 147°
2026-05-03 23:50 1.83055 153.11276 32910 ft 497 kts 147°
2026-05-03 23:51 1.77150 153.14878 32910 ft 498 kts 147°
2026-05-03 23:51 1.71237 153.18483 32909 ft 498 kts 147°
2026-05-03 23:52 1.65362 153.22064 32910 ft 498 kts 147°
2026-05-03 23:52 1.59443 153.25671 32914 ft 498 kts 147°
2026-05-03 23:53 1.53523 153.29279 32909 ft 499 kts 147°
2026-05-03 23:53 1.47598 153.32890 32912 ft 499 kts 147°
2026-05-03 23:54 1.41717 153.36473 32910 ft 499 kts 147°
2026-05-03 23:54 1.35783 153.40089 32909 ft 499 kts 147°
2026-05-03 23:55 1.29849 153.43706 32910 ft 500 kts 147°
2026-05-03 23:55 1.23949 153.47300 32912 ft 500 kts 147°
2026-05-03 23:56 1.18011 153.50919 32908 ft 500 kts 147°
2026-05-03 23:56 1.12064 153.54541 32907 ft 500 kts 147°
2026-05-03 23:57 1.06119 153.58164 32910 ft 501 kts 147°
2026-05-03 23:57 1.00171 153.61787 32910 ft 500 kts 147°
2026-05-03 23:58 0.94274 153.65379 32910 ft 500 kts 147°
2026-05-03 23:58 0.88332 153.68998 32909 ft 500 kts 147°
2026-05-03 23:59 0.82387 153.72619 32912 ft 500 kts 147°
2026-05-03 23:59 0.76446 153.76239 32907 ft 500 kts 147°
2026-05-04 00:00 0.70508 153.79857 32907 ft 500 kts 147°
2026-05-04 00:00 0.64604 153.83453 32910 ft 500 kts 147°
2026-05-04 00:01 0.58656 153.87074 32908 ft 501 kts 147°
2026-05-04 00:01 0.52710 153.90695 32907 ft 501 kts 147°
2026-05-04 00:02 0.46760 153.94318 32907 ft 501 kts 147°
2026-05-04 00:02 0.40854 153.97915 32909 ft 501 kts 147°
2026-05-04 00:03 0.34905 154.01541 32905 ft 501 kts 147°
2026-05-04 00:03 0.28958 154.05161 32908 ft 501 kts 147°
2026-05-04 00:04 0.23005 154.08788 32899 ft 501 kts 147°
2026-05-04 00:04 0.17090 154.12390 32908 ft 501 kts 147°
2026-05-04 00:05 0.11136 154.16015 32914 ft 502 kts 147°
2026-05-04 00:05 0.05173 154.19648 32909 ft 502 kts 147°
2026-05-04 00:06 -0.00789 154.23279 32904 ft 502 kts 147°
2026-05-04 00:06 -0.06720 154.26879 32909 ft 502 kts 147°
2026-05-04 00:07 -0.12696 154.30501 32910 ft 503 kts 147°
2026-05-04 00:07 -0.18677 154.34126 32906 ft 503 kts 147°
2026-05-04 00:08 -0.24655 154.37754 32904 ft 503 kts 147°
2026-05-04 00:08 -0.30637 154.41383 32904 ft 503 kts 147°
2026-05-04 00:09 -0.36573 154.44985 32903 ft 502 kts 148°
2026-05-04 00:09 -0.42542 154.48609 32904 ft 502 kts 148°
2026-05-04 00:10 -0.48515 154.52233 32907 ft 502 kts 148°
2026-05-04 00:10 -0.54483 154.55855 32905 ft 502 kts 148°
2026-05-04 00:11 -0.60402 154.59447 32904 ft 501 kts 148°
2026-05-04 00:11 -0.66357 154.63062 32907 ft 501 kts 148°
2026-05-04 00:12 -0.72311 154.66675 32904 ft 500 kts 148°
2026-05-04 00:12 -0.78257 154.70284 32906 ft 500 kts 147°
2026-05-04 00:13 -0.84196 154.73888 32905 ft 499 kts 148°
2026-05-04 00:13 -0.90131 154.77490 32904 ft 499 kts 147°
2026-05-04 00:14 -0.96018 154.81064 32902 ft 499 kts 147°
2026-05-04 00:14 -1.01947 154.84663 32903 ft 498 kts 147°
2026-05-04 00:15 -1.07870 154.88258 32903 ft 498 kts 147°
2026-05-04 00:15 -1.13795 154.91855 32905 ft 498 kts 147°
2026-05-04 00:16 -1.19679 154.95425 32905 ft 498 kts 147°
2026-05-04 00:16 -1.25603 154.99023 32904 ft 498 kts 147°
2026-05-04 00:17 -1.31523 155.02620 32902 ft 498 kts 148°
2026-05-04 00:17 -1.37448 155.06217 32903 ft 498 kts 148°
2026-05-04 00:18 -1.43374 155.09816 32901 ft 498 kts 148°
2026-05-04 00:18 -1.49263 155.13391 32903 ft 498 kts 148°
2026-05-04 00:19 -1.55184 155.16987 32901 ft 498 kts 148°
2026-05-04 00:19 -1.61111 155.20586 32899 ft 498 kts 148°
2026-05-04 00:20 -1.66989 155.24156 32898 ft 498 kts 148°
2026-05-04 00:20 -1.72905 155.27750 32898 ft 498 kts 148°
2026-05-04 00:21 -1.78821 155.31344 32901 ft 497 kts 148°
2026-05-04 00:21 -1.84733 155.34935 32900 ft 497 kts 148°
2026-05-04 00:22 -1.90648 155.38529 32898 ft 497 kts 148°
2026-05-04 00:22 -1.96519 155.42097 32899 ft 497 kts 148°
2026-05-04 00:23 -2.02432 155.45691 32898 ft 497 kts 148°
2026-05-04 00:23 -2.08350 155.49287 32900 ft 498 kts 148°
2026-05-04 00:24 -2.14266 155.52883 32895 ft 498 kts 148°
2026-05-04 00:24 -2.20144 155.56455 32895 ft 498 kts 148°
2026-05-04 00:25 -2.26062 155.60052 32897 ft 498 kts 148°
2026-05-04 00:25 -2.31984 155.63653 32898 ft 498 kts 148°
2026-05-04 00:26 -2.37902 155.67251 32893 ft 498 kts 148°
2026-05-04 00:26 -2.43784 155.70827 32891 ft 498 kts 148°
2026-05-04 00:27 -2.49705 155.74430 32892 ft 498 kts 148°
2026-05-04 00:27 -2.55628 155.78031 32890 ft 498 kts 148°
2026-05-04 00:28 -2.61549 155.81632 32890 ft 498 kts 148°
2026-05-04 00:28 -2.67429 155.85209 32891 ft 498 kts 148°
2026-05-04 00:29 -2.73343 155.88808 32894 ft 498 kts 148°
2026-05-04 00:29 -2.79264 155.92410 32891 ft 498 kts 148°
2026-05-04 00:30 -2.85181 155.96010 32893 ft 498 kts 148°
2026-05-04 00:30 -2.91058 155.99587 32894 ft 498 kts 148°
2026-05-04 00:31 -2.96968 156.03185 32889 ft 498 kts 148°
2026-05-04 00:31 -3.02881 156.06785 32888 ft 497 kts 148°
2026-05-04 00:32 -3.08792 156.10384 32892 ft 497 kts 148°
2026-05-04 00:32 -3.14662 156.13957 32885 ft 497 kts 148°
2026-05-04 00:33 -3.23519 156.19354 32891 ft 497 kts 148°
2026-05-04 00:34 -3.29428 156.22954 32889 ft 497 kts 148°
2026-05-04 00:34 -3.35302 156.26531 32888 ft 497 kts 148°
2026-05-04 00:35 -3.41211 156.30132 32889 ft 498 kts 148°
2026-05-04 00:35 -3.47129 156.33738 32887 ft 498 kts 148°
2026-05-04 00:36 -3.53041 156.37342 32888 ft 498 kts 148°
2026-05-04 00:36 -3.58914 156.40920 32887 ft 497 kts 148°
2026-05-04 00:37 -3.64822 156.44523 32889 ft 497 kts 148°
2026-05-04 00:37 -3.70733 156.48128 32886 ft 497 kts 148°
2026-05-04 00:38 -3.76644 156.51732 32886 ft 497 kts 148°
2026-05-04 00:38 -3.82512 156.55312 32889 ft 497 kts 148°
2026-05-04 00:39 -3.88423 156.58916 32889 ft 497 kts 148°
2026-05-04 00:39 -3.94330 156.62521 32887 ft 497 kts 148°
2026-05-04 00:40 -4.00237 156.66127 32888 ft 497 kts 148°
2026-05-04 00:40 -4.06101 156.69706 32884 ft 497 kts 148°
2026-05-04 00:41 -4.12011 156.73314 32883 ft 497 kts 148°
2026-05-04 00:41 -4.17917 156.76919 32885 ft 497 kts 148°
2026-05-04 00:42 -4.23829 156.80531 32885 ft 498 kts 148°
2026-05-04 00:42 -4.29696 156.84114 32886 ft 498 kts 148°
2026-05-04 00:43 -4.35612 156.87728 32885 ft 498 kts 148°
2026-05-04 00:43 -4.41526 156.91342 32882 ft 498 kts 148°
2026-05-04 00:44 -4.47442 156.94957 32887 ft 498 kts 148°
2026-05-04 00:44 -4.53315 156.98547 32881 ft 498 kts 148°
2026-05-04 00:45 -4.59233 157.02166 32880 ft 498 kts 148°
2026-05-04 00:45 -4.65149 157.05783 32882 ft 498 kts 148°
2026-05-04 00:46 -4.71067 157.09402 32880 ft 498 kts 148°
2026-05-04 00:46 -4.76940 157.12995 32881 ft 498 kts 148°
2026-05-04 00:47 -4.82861 157.16618 32882 ft 498 kts 148°
2026-05-04 00:47 -4.88779 157.20239 32880 ft 498 kts 148°
2026-05-04 00:48 -4.94693 157.23861 32883 ft 498 kts 148°
2026-05-04 00:48 -5.00567 157.27458 32883 ft 498 kts 148°
2026-05-04 00:49 -5.06478 157.31076 32882 ft 498 kts 148°
2026-05-04 00:49 -5.12386 157.34695 32882 ft 497 kts 148°
2026-05-04 00:50 -5.18292 157.38315 32883 ft 497 kts 148°
2026-05-04 00:50 -5.24159 157.41910 32882 ft 498 kts 148°
2026-05-04 00:51 -5.30070 157.45532 32883 ft 497 kts 149°
2026-05-04 00:51 -5.35973 157.49152 32886 ft 497 kts 149°
2026-05-04 00:52 -5.41878 157.52773 32884 ft 497 kts 149°
2026-05-04 00:52 -5.47743 157.56372 32885 ft 497 kts 149°
2026-05-04 00:53 -5.53647 157.59994 32882 ft 497 kts 149°
2026-05-04 00:53 -5.59552 157.63619 32883 ft 497 kts 149°
2026-05-04 00:54 -5.65454 157.67249 32880 ft 497 kts 148°
2026-05-04 00:54 -5.71303 157.70872 32881 ft 497 kts 148°
2026-05-04 00:55 -5.77188 157.74522 32880 ft 497 kts 148°
2026-05-04 00:55 -5.83075 157.78172 32881 ft 497 kts 148°
2026-05-04 00:56 -5.88959 157.81819 32881 ft 497 kts 148°
2026-05-04 00:56 -5.94803 157.85440 32885 ft 497 kts 148°
2026-05-04 00:57 -6.00679 157.89085 32884 ft 496 kts 148°
2026-05-04 00:57 -6.06556 157.92730 32884 ft 496 kts 148°
2026-05-04 00:58 -6.12431 157.96374 32881 ft 496 kts 148°
2026-05-04 00:58 -6.18263 157.99994 32884 ft 496 kts 148°
2026-05-04 00:59 -6.24138 158.03640 32884 ft 496 kts 148°
2026-05-04 00:59 -6.30015 158.07287 32884 ft 496 kts 148°
2026-05-04 01:00 -6.35890 158.10937 32884 ft 496 kts 148°
2026-05-04 01:00 -6.41721 158.14560 32885 ft 496 kts 148°
2026-05-04 01:01 -6.47586 158.18204 32885 ft 496 kts 148°
2026-05-04 01:01 -6.53454 158.21850 32882 ft 495 kts 148°
2026-05-04 01:02 -6.59316 158.25495 32880 ft 495 kts 148°
2026-05-04 01:02 -6.65172 158.29138 32883 ft 495 kts 148°
2026-05-04 01:03 -6.70987 158.32755 32885 ft 495 kts 148°
2026-05-04 01:03 -6.76841 158.36397 32884 ft 495 kts 148°
2026-05-04 01:04 -6.82688 158.40036 32884 ft 494 kts 148°
2026-05-04 01:04 -6.88498 158.43654 32888 ft 494 kts 148°
2026-05-04 01:05 -6.94337 158.47291 32896 ft 494 kts 149°
2026-05-04 01:05 -7.00184 158.50933 32888 ft 494 kts 149°
2026-05-04 01:06 -7.06034 158.54578 32892 ft 494 kts 149°
2026-05-04 01:06 -7.11882 158.58223 32888 ft 494 kts 149°
2026-05-04 01:07 -7.17686 158.61842 32888 ft 495 kts 149°
2026-05-04 01:07 -7.23541 158.65495 32875 ft 495 kts 149°
2026-05-04 01:08 -7.29398 158.69150 32889 ft 495 kts 149°
2026-05-04 01:08 -7.35254 158.72804 32891 ft 495 kts 149°
2026-05-04 01:09 -7.41078 158.76442 32887 ft 496 kts 149°
2026-05-04 01:09 -7.46939 158.80101 32878 ft 496 kts 149°
2026-05-04 01:10 -7.52810 158.83767 32892 ft 496 kts 149°
2026-05-04 01:10 -7.58676 158.87433 32894 ft 496 kts 149°
2026-05-04 01:11 -7.64545 158.91104 32895 ft 496 kts 149°
2026-05-04 01:11 -7.70376 158.94750 32877 ft 496 kts 149°
2026-05-04 01:12 -7.76243 158.98418 32879 ft 497 kts 149°
2026-05-04 01:12 -7.82117 159.02095 32896 ft 497 kts 149°
2026-05-04 01:13 -7.87988 159.05771 32877 ft 497 kts 149°
2026-05-04 01:13 -7.93822 159.09424 32876 ft 497 kts 149°
2026-05-04 01:14 -7.99697 159.13107 32900 ft 498 kts 149°
2026-05-04 01:14 -8.05583 159.16796 32899 ft 498 kts 149°
2026-05-04 01:15 -8.11467 159.20487 32883 ft 498 kts 149°
2026-05-04 01:15 -8.17309 159.24155 32884 ft 498 kts 149°
2026-05-04 01:16 -8.23200 159.27856 32882 ft 499 kts 149°
2026-05-04 01:16 -8.29087 159.31556 32883 ft 498 kts 149°
2026-05-04 01:17 -8.34971 159.35255 32891 ft 498 kts 149°
2026-05-04 01:17 -8.40859 159.38957 32892 ft 498 kts 149°
2026-05-04 01:18 -8.46707 159.42637 32883 ft 499 kts 149°
2026-05-04 01:18 -8.52595 159.46343 32875 ft 499 kts 149°
2026-05-04 01:19 -8.58485 159.50052 32876 ft 499 kts 149°
2026-05-04 01:19 -8.64385 159.53763 32892 ft 500 kts 149°
2026-05-04 01:20 -8.70289 159.57478 32881 ft 500 kts 149°
2026-05-04 01:20 -8.76154 159.61172 32877 ft 500 kts 149°
2026-05-04 01:21 -8.82054 159.64890 32876 ft 500 kts 149°
2026-05-04 01:21 -8.87965 159.68616 32879 ft 501 kts 149°
2026-05-04 01:22 -8.93877 159.72345 32876 ft 501 kts 149°
2026-05-04 01:22 -8.99745 159.76047 32872 ft 501 kts 149°
2026-05-04 01:23 -9.05659 159.79779 32878 ft 501 kts 149°
2026-05-04 01:23 -9.11570 159.83511 32876 ft 501 kts 149°
2026-05-04 01:24 -9.17481 159.87244 32880 ft 501 kts 149°
2026-05-04 01:24 -9.23396 159.90981 32880 ft 501 kts 149°
2026-05-04 01:25 -9.29273 159.94697 32886 ft 501 kts 149°
2026-05-04 01:25 -9.35188 159.98439 32887 ft 501 kts 149°
2026-05-04 01:26 -9.41110 160.02185 32882 ft 502 kts 149°
2026-05-04 01:26 -9.47220 160.05540 32884 ft 500 kts 157°
2026-05-04 01:27 -9.53519 160.08413 32885 ft 499 kts 158°
2026-05-04 01:27 -9.59864 160.11291 32886 ft 499 kts 158°
2026-05-04 01:28 -9.66190 160.14203 32891 ft 500 kts 157°
2026-05-04 01:28 -9.72514 160.17137 32885 ft 500 kts 157°
2026-05-04 01:29 -9.78835 160.20073 32897 ft 500 kts 157°
2026-05-04 01:29 -9.85128 160.22995 32884 ft 501 kts 157°
2026-05-04 01:30 -9.91465 160.25939 32886 ft 501 kts 157°
2026-05-04 01:30 -9.97808 160.28885 32887 ft 501 kts 157°
2026-05-04 01:31 -10.04144 160.31830 32880 ft 501 kts 157°
2026-05-04 01:31 -10.10435 160.34755 32877 ft 501 kts 157°
2026-05-04 01:32 -10.16767 160.37701 32872 ft 501 kts 157°
2026-05-04 01:32 -10.22032 160.40152 32870 ft 501 kts 157°
2026-05-04 01:33 -10.29429 160.43597 32874 ft 500 kts 157°
2026-05-04 01:33 -10.35716 160.46524 32869 ft 501 kts 157°
2026-05-04 01:34 -10.42051 160.49475 32873 ft 501 kts 157°
2026-05-04 01:34 -10.47314 160.51930 32873 ft 501 kts 157°
2026-05-04 01:35 -10.53646 160.54885 32871 ft 501 kts 157°
2026-05-04 01:35 -10.59981 160.57843 32874 ft 501 kts 157°
2026-05-04 01:36 -10.66319 160.60803 32877 ft 501 kts 157°
2026-05-04 01:36 -10.72612 160.63744 32874 ft 501 kts 157°
2026-05-04 01:37 -10.78945 160.66704 32878 ft 501 kts 157°
2026-05-04 01:37 -10.85281 160.69668 32874 ft 501 kts 157°
2026-05-04 01:38 -10.91613 160.72631 32874 ft 501 kts 158°
2026-05-04 01:38 -10.97904 160.75578 32876 ft 501 kts 158°
2026-05-04 01:39 -11.04231 160.78547 32876 ft 501 kts 157°
2026-05-04 01:39 -11.10554 160.81519 32876 ft 500 kts 158°
2026-05-04 01:40 -11.16878 160.84493 32879 ft 500 kts 158°
2026-05-04 01:40 -11.23157 160.87445 32876 ft 501 kts 158°
2026-05-04 01:41 -11.29480 160.90420 32878 ft 501 kts 158°
2026-05-04 01:41 -11.35798 160.93394 32881 ft 501 kts 158°
2026-05-04 01:42 -11.42126 160.96375 32880 ft 500 kts 158°
2026-05-04 01:42 -11.48441 160.99352 32882 ft 500 kts 158°
2026-05-04 01:43 -11.54723 161.02312 32883 ft 500 kts 158°
2026-05-04 01:43 -11.61040 161.05292 32879 ft 500 kts 158°
2026-05-04 01:44 -11.67353 161.08272 32879 ft 500 kts 158°
2026-05-04 01:44 -11.73661 161.11251 32885 ft 500 kts 158°
2026-05-04 01:45 -11.79970 161.14229 32880 ft 499 kts 158°
2026-05-04 01:45 -11.89377 161.18678 32883 ft 499 kts 158°
2026-05-04 01:46 -11.95676 161.21657 32879 ft 499 kts 158°
2026-05-04 01:46 -12.01971 161.24636 32880 ft 499 kts 158°
2026-05-04 01:47 -12.08261 161.27616 32879 ft 498 kts 158°
2026-05-04 01:47 -12.14504 161.30574 32879 ft 498 kts 158°
2026-05-04 01:48 -12.20793 161.33553 32881 ft 498 kts 158°
2026-05-04 01:48 -12.27072 161.36531 32881 ft 498 kts 158°
2026-05-04 01:49 -12.33350 161.39512 32880 ft 497 kts 158°
2026-05-04 01:49 -12.39577 161.42467 32881 ft 496 kts 158°
2026-05-04 01:50 -12.45836 161.45440 32884 ft 496 kts 158°
2026-05-04 01:50 -12.52086 161.48410 32886 ft 495 kts 157°
2026-05-04 01:51 -12.58331 161.51380 32882 ft 495 kts 157°
2026-05-04 01:51 -12.64567 161.54348 32880 ft 494 kts 157°
2026-05-04 01:52 -12.70799 161.57315 32882 ft 494 kts 157°
2026-05-04 01:52 -12.76982 161.60259 32881 ft 493 kts 157°
2026-05-04 01:53 -12.83202 161.63223 32885 ft 493 kts 157°
2026-05-04 01:53 -12.89421 161.66188 32886 ft 493 kts 157°
2026-05-04 01:54 -12.95636 161.69154 32881 ft 493 kts 157°
2026-05-04 01:54 -13.01810 161.72103 32880 ft 492 kts 157°
2026-05-04 01:55 -13.08017 161.75065 32884 ft 492 kts 157°
2026-05-04 01:55 -13.14223 161.78030 32882 ft 492 kts 157°
2026-05-04 01:56 -13.20431 161.80998 32882 ft 492 kts 157°
2026-05-04 01:56 -13.26635 161.83967 32889 ft 492 kts 157°
2026-05-04 01:57 -13.32799 161.86919 32887 ft 492 kts 157°
2026-05-04 01:57 -13.39002 161.89890 32887 ft 492 kts 158°
2026-05-04 01:58 -13.45206 161.92862 32888 ft 492 kts 158°
2026-05-04 01:58 -13.51411 161.95837 32886 ft 492 kts 158°
2026-05-04 01:59 -13.57570 161.98792 32885 ft 492 kts 158°
2026-05-04 01:59 -13.63766 162.01767 32883 ft 491 kts 158°
2026-05-04 02:00 -13.69959 162.04742 32889 ft 491 kts 158°
2026-05-04 02:00 -13.76140 162.07713 32892 ft 490 kts 158°
2026-05-04 02:01 -13.82278 162.10664 32884 ft 490 kts 158°
2026-05-04 02:01 -13.88455 162.13638 32884 ft 490 kts 158°
2026-05-04 02:02 -13.94625 162.16609 32889 ft 489 kts 158°
2026-05-04 02:02 -14.00785 162.19576 32885 ft 489 kts 158°
2026-05-04 02:03 -14.06954 162.22533 32891 ft 489 kts 158°
2026-05-04 02:03 -14.13070 162.25457 32887 ft 488 kts 158°
2026-05-04 02:04 -14.19234 162.28407 32887 ft 488 kts 158°
2026-05-04 02:04 -14.25388 162.31357 32890 ft 488 kts 158°
2026-05-04 02:05 -14.31539 162.34308 32903 ft 487 kts 158°
2026-05-04 02:05 -14.37680 162.37256 32895 ft 487 kts 158°
2026-05-04 02:06 -14.43826 162.40210 32892 ft 487 kts 158°
2026-05-04 02:06 -14.49962 162.43159 32891 ft 486 kts 158°
2026-05-04 02:07 -14.56097 162.46110 32890 ft 486 kts 158°
2026-05-04 02:07 -14.62224 162.49059 32894 ft 486 kts 158°
2026-05-04 02:08 -14.68347 162.52008 32893 ft 485 kts 158°
2026-05-04 02:08 -14.74466 162.54956 32893 ft 485 kts 158°
2026-05-04 02:09 -14.80581 162.57904 32895 ft 485 kts 158°
2026-05-04 02:09 -14.86688 162.60851 32893 ft 485 kts 158°
2026-05-04 02:10 -14.92798 162.63801 32893 ft 484 kts 158°
2026-05-04 02:10 -14.98904 162.66750 32894 ft 484 kts 158°
2026-05-04 02:11 -15.05002 162.69699 32891 ft 484 kts 159°
2026-05-04 02:11 -15.11093 162.72646 32894 ft 483 kts 159°
2026-05-04 02:12 -15.17180 162.75591 32895 ft 483 kts 159°
2026-05-04 02:12 -15.23219 162.78516 32892 ft 483 kts 159°
2026-05-04 02:13 -15.29297 162.81461 32897 ft 482 kts 159°
2026-05-04 02:13 -15.35372 162.84407 32896 ft 482 kts 159°
2026-05-04 02:14 -15.41439 162.87350 32896 ft 481 kts 159°
2026-05-04 02:14 -15.47504 162.90295 32896 ft 481 kts 159°
2026-05-04 02:15 -15.53572 162.93244 32898 ft 481 kts 159°
2026-05-04 02:15 -15.59634 162.96191 32896 ft 481 kts 159°
2026-05-04 02:16 -15.65692 162.99139 32900 ft 481 kts 159°
2026-05-04 02:16 -15.71745 163.02087 32888 ft 480 kts 159°
2026-05-04 02:17 -15.77792 163.05032 32892 ft 480 kts 159°
2026-05-04 02:17 -15.83799 163.07959 32895 ft 480 kts 159°
2026-05-04 02:18 -15.89843 163.10908 32897 ft 480 kts 159°
2026-05-04 02:18 -15.95886 163.13858 32897 ft 479 kts 159°
2026-05-04 02:19 -16.01922 163.16807 32898 ft 479 kts 159°
2026-05-04 02:19 -16.07953 163.19753 32900 ft 479 kts 159°
2026-05-04 02:20 -16.13979 163.22701 32901 ft 478 kts 159°
2026-05-04 02:20 -16.19958 163.25628 32900 ft 478 kts 159°
2026-05-04 02:21 -16.25977 163.28577 32899 ft 478 kts 159°
2026-05-04 02:21 -16.31987 163.31522 32901 ft 477 kts 159°
2026-05-04 02:22 -16.37995 163.34467 32903 ft 477 kts 159°
2026-05-04 02:22 -16.43999 163.37415 32901 ft 477 kts 159°
2026-05-04 02:23 -16.50000 163.40362 32903 ft 477 kts 159°
2026-05-04 02:23 -16.55954 163.43289 32906 ft 476 kts 159°
2026-05-04 02:24 -16.61947 163.46236 32903 ft 476 kts 159°
2026-05-04 02:24 -16.67930 163.49181 32906 ft 476 kts 159°
2026-05-04 02:25 -16.73917 163.52129 32906 ft 476 kts 159°
2026-05-04 02:25 -16.79899 163.55076 32906 ft 475 kts 159°
2026-05-04 02:26 -16.85879 163.58026 32909 ft 475 kts 159°
2026-05-04 02:26 -16.91820 163.60957 32907 ft 475 kts 159°
2026-05-04 02:27 -16.97840 163.63930 32911 ft 475 kts 159°
2026-05-04 02:27 -17.03776 163.66864 32909 ft 475 kts 159°
2026-05-04 02:28 -17.09753 163.69820 32912 ft 475 kts 159°
2026-05-04 02:28 -17.15734 163.72778 32911 ft 476 kts 159°
2026-05-04 02:29 -17.21718 163.75744 32909 ft 476 kts 159°
2026-05-04 02:29 -17.27694 163.78708 32908 ft 475 kts 159°
2026-05-04 02:30 -17.33672 163.81671 32915 ft 475 kts 159°
2026-05-04 02:30 -17.39605 163.84615 32912 ft 475 kts 159°
2026-05-04 02:31 -17.45578 163.87583 32909 ft 475 kts 159°
2026-05-04 02:31 -17.51548 163.90550 32913 ft 475 kts 159°
2026-05-04 02:32 -17.57513 163.93517 32914 ft 475 kts 159°
2026-05-04 02:32 -17.63481 163.96488 32914 ft 475 kts 159°
2026-05-04 02:33 -17.69448 163.99461 32909 ft 475 kts 159°
2026-05-04 02:33 -17.75408 164.02432 32915 ft 474 kts 159°
2026-05-04 02:34 -17.81334 164.05389 32910 ft 475 kts 159°
2026-05-04 02:34 -17.87299 164.08369 32909 ft 475 kts 159°
2026-05-04 02:35 -17.93257 164.11345 32912 ft 475 kts 159°
2026-05-04 02:35 -17.99221 164.14325 32923 ft 474 kts 159°
2026-05-04 02:36 -18.05181 164.17306 32924 ft 474 kts 159°
2026-05-04 02:36 -18.11128 164.20285 32922 ft 473 kts 159°
2026-05-04 02:37 -18.17079 164.23268 32913 ft 473 kts 159°
2026-05-04 02:37 -18.23053 164.26263 33245 ft 477 kts 159°
2026-05-04 02:38 -18.26044 164.27764 33639 ft 476 kts 159°
2026-05-04 02:38 -18.29023 164.29262 34044 ft 473 kts 159°
2026-05-04 02:38 -18.31991 164.30753 34393 ft 472 kts 160°
2026-05-04 02:38 -18.34952 164.32241 34699 ft 471 kts 160°
2026-05-04 02:39 -18.37915 164.33730 34831 ft 473 kts 160°
2026-05-04 02:39 -18.40851 164.35205 34874 ft 474 kts 160°
2026-05-04 02:39 -18.46785 164.38190 34915 ft 472 kts 160°
2026-05-04 02:40 -18.52698 164.41168 34920 ft 470 kts 160°
2026-05-04 02:40 -18.58588 164.44135 34927 ft 469 kts 160°
2026-05-04 02:41 -18.64473 164.47102 34922 ft 469 kts 160°
2026-05-04 02:41 -18.70359 164.50072 34923 ft 469 kts 160°
2026-05-04 02:42 -18.76246 164.53043 34925 ft 469 kts 160°
2026-05-04 02:42 -18.82142 164.56023 34923 ft 470 kts 160°
2026-05-04 02:43 -18.88041 164.59007 34924 ft 470 kts 160°
2026-05-04 02:43 -18.93906 164.61976 34926 ft 471 kts 160°
2026-05-04 02:44 -18.99809 164.64968 34925 ft 471 kts 160°
2026-05-04 02:44 -19.05715 164.67961 34928 ft 470 kts 160°
2026-05-04 02:45 -19.11621 164.70957 34927 ft 470 kts 160°
2026-05-04 02:45 -19.17515 164.73950 34932 ft 470 kts 160°
2026-05-04 02:46 -19.23411 164.76947 34926 ft 470 kts 160°
2026-05-04 02:46 -19.29297 164.79942 34931 ft 469 kts 160°
2026-05-04 02:47 -19.35145 164.82918 34929 ft 469 kts 160°
2026-05-04 02:47 -19.41023 164.85913 34930 ft 469 kts 160°
2026-05-04 02:48 -19.46892 164.88905 34932 ft 468 kts 160°
2026-05-04 02:48 -19.52761 164.91898 34933 ft 468 kts 160°
2026-05-04 02:49 -19.58624 164.94893 34931 ft 467 kts 160°
2026-05-04 02:49 -19.64482 164.97886 34934 ft 467 kts 160°
2026-05-04 02:50 -19.70331 165.00878 34933 ft 467 kts 160°
2026-05-04 02:50 -19.76175 165.03871 34934 ft 466 kts 160°
2026-05-04 02:51 -19.82023 165.06866 34933 ft 466 kts 160°
2026-05-04 02:51 -19.87863 165.09862 34934 ft 466 kts 160°
2026-05-04 02:52 -19.93661 165.12837 34933 ft 466 kts 160°
2026-05-04 02:52 -19.99488 165.15830 34935 ft 465 kts 160°
2026-05-04 02:53 -20.04366 165.18338 34933 ft 465 kts 160°
2026-05-04 02:53 -20.10184 165.21330 34935 ft 464 kts 160°
2026-05-04 02:54 -20.15959 165.24304 34940 ft 464 kts 160°
2026-05-04 02:54 -20.21767 165.27297 34937 ft 464 kts 160°
2026-05-04 02:55 -20.30467 165.31805 34937 ft 463 kts 160°
2026-05-04 02:56 -20.36249 165.34810 34934 ft 463 kts 160°
2026-05-04 02:56 -20.42043 165.37823 34941 ft 463 kts 160°
2026-05-04 02:57 -20.47831 165.40834 34945 ft 462 kts 160°
2026-05-04 02:57 -20.53615 165.43844 34938 ft 462 kts 160°
2026-05-04 02:58 -20.59387 165.46852 34939 ft 462 kts 160°
2026-05-04 02:58 -20.65162 165.49864 34943 ft 462 kts 160°
2026-05-04 02:59 -20.70928 165.52874 34942 ft 461 kts 160°
2026-05-04 02:59 -20.76652 165.55863 34944 ft 461 kts 160°
2026-05-04 03:00 -20.82411 165.58874 34943 ft 460 kts 160°
2026-05-04 03:00 -20.88164 165.61884 34940 ft 460 kts 160°
2026-05-04 03:01 -20.93915 165.64896 34941 ft 460 kts 160°
2026-05-04 03:01 -20.99666 165.67909 34943 ft 460 kts 160°
2026-05-04 03:02 -21.05408 165.70922 34942 ft 460 kts 160°
2026-05-04 03:02 -21.11152 165.73939 34936 ft 460 kts 160°
2026-05-04 03:03 -21.16891 165.76955 34952 ft 459 kts 160°
2026-05-04 03:03 -21.22594 165.79954 34947 ft 459 kts 160°
2026-05-04 03:04 -21.28327 165.82972 34950 ft 459 kts 160°
2026-05-04 03:04 -21.34059 165.85991 34951 ft 459 kts 160°
2026-05-04 03:05 -21.39782 165.89012 34953 ft 459 kts 160°
2026-05-04 03:05 -21.45511 165.92035 34943 ft 459 kts 160°
2026-05-04 03:06 -21.51238 165.95066 34937 ft 458 kts 160°
2026-05-04 03:06 -21.56943 165.98079 34933 ft 455 kts 160°
2026-05-04 03:07 -21.62632 166.01088 34937 ft 456 kts 161°
2026-05-04 03:07 -21.68326 166.04102 34929 ft 457 kts 160°
2026-05-04 03:08 -21.74000 166.07113 34927 ft 457 kts 161°
2026-05-04 03:08 -21.79704 166.10140 34933 ft 458 kts 160°
2026-05-04 03:09 -21.85428 166.13177 34939 ft 459 kts 160°
2026-05-04 03:09 -21.91149 166.16221 34947 ft 458 kts 161°
2026-05-04 03:10 -21.96832 166.19245 34950 ft 460 kts 161°
2026-05-04 03:10 -22.02567 166.22301 34934 ft 459 kts 160°
2026-05-04 03:11 -22.08278 166.25364 34935 ft 457 kts 160°
2026-05-04 03:11 -22.13958 166.28418 34940 ft 456 kts 160°
2026-05-04 03:12 -22.19631 166.31468 34931 ft 455 kts 160°
2026-05-04 03:12 -22.25285 166.34510 34930 ft 454 kts 161°
2026-05-04 03:13 -22.30937 166.37553 34927 ft 454 kts 161°
2026-05-04 03:13 -22.36586 166.40597 34931 ft 454 kts 161°
2026-05-04 03:14 -22.42199 166.43626 34938 ft 454 kts 161°
2026-05-04 03:14 -22.47849 166.46677 34936 ft 454 kts 161°
2026-05-04 03:15 -22.53499 166.49730 34940 ft 454 kts 161°
2026-05-04 03:15 -22.59157 166.52792 34943 ft 455 kts 161°
2026-05-04 03:16 -22.64816 166.55856 34947 ft 454 kts 161°
2026-05-04 03:16 -22.70466 166.58919 34953 ft 454 kts 161°
2026-05-04 03:17 -22.76115 166.61983 34949 ft 454 kts 161°
2026-05-04 03:17 -22.81755 166.65046 34952 ft 453 kts 161°
2026-05-04 03:18 -22.87390 166.68108 34965 ft 453 kts 161°
2026-05-04 03:18 -22.93022 166.71172 34957 ft 452 kts 161°
2026-05-04 03:19 -22.98644 166.74233 34958 ft 452 kts 161°
2026-05-04 03:19 -23.04229 166.77278 34964 ft 452 kts 161°
2026-05-04 03:20 -23.09839 166.80338 34965 ft 451 kts 161°
2026-05-04 03:20 -23.15454 166.83404 34969 ft 451 kts 161°
2026-05-04 03:21 -23.21063 166.86470 34968 ft 451 kts 161°
2026-05-04 03:21 -23.26672 166.89538 34972 ft 451 kts 161°
2026-05-04 03:22 -23.32283 166.92611 34972 ft 451 kts 161°
2026-05-04 03:22 -23.37891 166.95684 34974 ft 451 kts 161°
2026-05-04 03:23 -23.43497 166.98760 34971 ft 451 kts 161°
2026-05-04 03:23 -23.49101 167.01839 34976 ft 451 kts 161°
2026-05-04 03:24 -23.54703 167.04919 34977 ft 451 kts 161°
2026-05-04 03:24 -23.60300 167.07997 34974 ft 451 kts 161°
2026-05-04 03:25 -23.65854 167.11056 34971 ft 451 kts 161°
2026-05-04 03:25 -23.71449 167.14140 34969 ft 450 kts 161°
2026-05-04 03:26 -23.77032 167.17222 34974 ft 450 kts 161°
2026-05-04 03:26 -23.82620 167.20309 34977 ft 450 kts 161°
2026-05-04 03:27 -23.88206 167.23397 34973 ft 450 kts 161°
2026-05-04 03:27 -23.93792 167.26489 34973 ft 450 kts 161°
2026-05-04 03:28 -23.99372 167.29580 34973 ft 450 kts 161°
2026-05-04 03:28 -24.04948 167.32672 34973 ft 449 kts 161°
2026-05-04 03:29 -24.10531 167.35770 34979 ft 450 kts 161°
2026-05-04 03:29 -24.16071 167.38849 34977 ft 450 kts 161°
2026-05-04 03:30 -24.21646 167.41950 34975 ft 450 kts 161°
2026-05-04 03:30 -24.27226 167.45056 34981 ft 450 kts 161°
2026-05-04 03:31 -24.32800 167.48161 34979 ft 450 kts 161°
2026-05-04 03:31 -24.38376 167.51271 34980 ft 450 kts 161°
2026-05-04 03:32 -24.43948 167.54383 34982 ft 449 kts 161°
2026-05-04 03:32 -24.49483 167.57477 34981 ft 449 kts 161°
2026-05-04 03:33 -24.55052 167.60593 34983 ft 449 kts 161°
2026-05-04 03:33 -24.60616 167.63710 34984 ft 449 kts 161°
2026-05-04 03:34 -24.66182 167.66830 34984 ft 449 kts 161°
2026-05-04 03:34 -24.71742 167.69952 34986 ft 449 kts 161°
2026-05-04 03:35 -24.77308 167.73079 34990 ft 449 kts 161°
2026-05-04 03:35 -24.82830 167.76184 34988 ft 449 kts 161°
2026-05-04 03:36 -24.88386 167.79317 34986 ft 449 kts 161°
2026-05-04 03:36 -24.93943 167.82454 34994 ft 449 kts 161°
2026-05-04 03:37 -24.99501 167.85595 34992 ft 449 kts 161°
2026-05-04 03:37 -25.05062 167.88740 34999 ft 449 kts 161°
2026-05-04 03:38 -25.10615 167.91885 35002 ft 449 kts 161°
2026-05-04 03:38 -25.16168 167.95033 34998 ft 448 kts 161°
2026-05-04 03:39 -25.21716 167.98181 34999 ft 448 kts 161°
2026-05-04 03:39 -25.27257 168.01327 35005 ft 448 kts 161°
2026-05-04 03:40 -25.32808 168.04483 35008 ft 448 kts 161°
2026-05-04 03:40 -25.38355 168.07638 35000 ft 448 kts 161°
2026-05-04 03:41 -25.43862 168.10779 35008 ft 448 kts 161°
2026-05-04 03:41 -25.49399 168.13938 35010 ft 448 kts 161°
2026-05-04 03:42 -25.54939 168.17099 35019 ft 448 kts 161°
2026-05-04 03:42 -25.60473 168.20262 35019 ft 448 kts 161°
2026-05-04 03:43 -25.66012 168.23432 35022 ft 448 kts 161°
2026-05-04 03:43 -25.71544 168.26603 35022 ft 448 kts 161°
2026-05-04 03:44 -25.77077 168.29773 35031 ft 447 kts 161°
2026-05-04 03:44 -25.79846 168.31360 34867 ft 449 kts 161°
2026-05-04 03:44 -25.82615 168.32954 34625 ft 447 kts 161°
2026-05-04 03:44 -25.85361 168.34541 34408 ft 443 kts 161°
2026-05-04 03:45 -25.88082 168.36108 34180 ft 437 kts 161°
2026-05-04 03:45 -25.90786 168.37660 33934 ft 437 kts 161°
2026-05-04 03:45 -25.93470 168.39193 33669 ft 433 kts 161°
2026-05-04 03:45 -25.96145 168.40733 33399 ft 432 kts 161°
2026-05-04 03:46 -25.98798 168.42272 33158 ft 429 kts 160°
2026-05-04 03:46 -26.04087 168.45322 33060 ft 434 kts 160°
2026-05-04 03:47 -26.09465 168.48413 33040 ft 436 kts 160°
2026-05-04 03:47 -26.14865 168.51536 33036 ft 437 kts 160°
2026-05-04 03:48 -26.20234 168.54641 33034 ft 435 kts 160°
2026-05-04 03:48 -26.25603 168.57751 33046 ft 435 kts 160°
2026-05-04 03:49 -26.30964 168.60842 33057 ft 434 kts 160°
2026-05-04 03:49 -26.36306 168.63934 33054 ft 432 kts 160°
2026-05-04 03:50 -26.41662 168.67047 33061 ft 436 kts 160°
2026-05-04 03:50 -26.47033 168.70182 33056 ft 436 kts 160°
2026-05-04 03:51 -26.52441 168.73326 33143 ft 445 kts 160°
2026-05-04 03:51 -26.55206 168.74930 33289 ft 451 kts 160°
2026-05-04 03:51 -26.57998 168.76554 33578 ft 453 kts 160°
2026-05-04 03:51 -26.60787 168.78182 34013 ft 451 kts 160°
2026-05-04 03:52 -26.63551 168.79800 34469 ft 447 kts 161°
2026-05-04 03:52 -26.66297 168.81406 34861 ft 445 kts 161°
2026-05-04 03:52 -26.69046 168.83012 34984 ft 448 kts 161°
2026-05-04 03:53 -26.73644 168.85693 35059 ft 447 kts 161°
2026-05-04 03:53 -26.80033 168.89431 35072 ft 445 kts 161°
2026-05-04 03:54 -26.85507 168.92639 35081 ft 444 kts 161°
2026-05-04 03:54 -26.90087 168.95325 35079 ft 443 kts 161°
2026-05-04 03:55 -26.95556 168.98533 35083 ft 444 kts 161°
2026-05-04 03:55 -27.01025 169.01746 35082 ft 444 kts 161°
2026-05-04 03:56 -27.06464 169.04946 35089 ft 445 kts 161°
2026-05-04 03:56 -27.11954 169.08179 35088 ft 446 kts 161°
2026-05-04 03:57 -27.17445 169.11418 35088 ft 446 kts 160°
2026-05-04 03:57 -27.22944 169.14667 35091 ft 447 kts 160°
2026-05-04 03:58 -27.31194 169.19551 35098 ft 447 kts 160°
2026-05-04 03:58 -27.36693 169.22810 35099 ft 447 kts 160°
2026-05-04 03:59 -27.42193 169.26075 35103 ft 447 kts 160°
2026-05-04 03:59 -27.47688 169.29340 35105 ft 447 kts 160°
2026-05-04 04:00 -27.53189 169.32611 35106 ft 447 kts 160°
2026-05-04 04:00 -27.58688 169.35885 35113 ft 447 kts 160°
2026-05-04 04:01 -27.64188 169.39162 35113 ft 447 kts 160°
2026-05-04 04:01 -27.69692 169.42447 35121 ft 448 kts 160°
2026-05-04 04:02 -27.75201 169.45738 35124 ft 448 kts 160°
2026-05-04 04:02 -27.80712 169.49033 35124 ft 449 kts 160°
2026-05-04 04:03 -27.86236 169.52341 35130 ft 449 kts 160°
2026-05-04 04:03 -27.91766 169.55656 35129 ft 450 kts 159°
2026-05-04 04:04 -27.97303 169.58979 35127 ft 451 kts 159°
2026-05-04 04:04 -28.02716 169.62231 35139 ft 452 kts 159°
2026-05-04 04:05 -28.08278 169.65578 35147 ft 453 kts 159°
2026-05-04 04:05 -28.13856 169.68938 35146 ft 455 kts 159°
2026-05-04 04:06 -28.19453 169.72313 35146 ft 456 kts 158°
2026-05-04 04:06 -28.25063 169.75700 35146 ft 457 kts 158°
2026-05-04 04:07 -28.30569 169.79029 35150 ft 459 kts 158°
2026-05-04 04:07 -28.36213 169.82445 35155 ft 461 kts 158°
2026-05-04 04:08 -28.41876 169.85877 35157 ft 462 kts 158°
2026-05-04 04:08 -28.47557 169.89323 35165 ft 464 kts 158°
2026-05-04 04:09 -28.53262 169.92789 35166 ft 465 kts 158°
2026-05-04 04:09 -28.58978 169.96266 35172 ft 467 kts 157°
2026-05-04 04:10 -28.64711 169.99756 35165 ft 468 kts 157°
2026-05-04 04:10 -28.70467 170.03265 35179 ft 470 kts 157°
2026-05-04 04:11 -28.76239 170.06788 35182 ft 471 kts 157°
2026-05-04 04:11 -28.82025 170.10325 35185 ft 472 kts 156°
2026-05-04 04:12 -28.87825 170.13876 35184 ft 474 kts 156°
2026-05-04 04:12 -28.93641 170.17440 35192 ft 475 kts 156°
2026-05-04 04:13 -28.99466 170.21015 35194 ft 476 kts 156°
2026-05-04 04:13 -29.05311 170.24607 35199 ft 477 kts 156°
2026-05-04 04:14 -29.11159 170.28204 35199 ft 478 kts 156°
2026-05-04 04:14 -29.17029 170.31819 35203 ft 479 kts 156°
2026-05-04 04:15 -29.22905 170.35444 35204 ft 480 kts 155°
2026-05-04 04:15 -29.28794 170.39082 35211 ft 481 kts 155°
2026-05-04 04:16 -29.34692 170.42728 35210 ft 482 kts 155°
2026-05-04 04:16 -29.40597 170.46385 35215 ft 483 kts 155°
2026-05-04 04:17 -29.46517 170.50057 35218 ft 484 kts 155°
2026-05-04 04:17 -29.52444 170.53739 35221 ft 485 kts 155°
2026-05-04 04:18 -29.58377 170.57428 35221 ft 485 kts 155°
2026-05-04 04:18 -29.64311 170.61123 35228 ft 485 kts 155°
2026-05-04 04:19 -29.70253 170.64827 35227 ft 486 kts 155°
2026-05-04 04:19 -29.76196 170.68537 35227 ft 486 kts 155°
2026-05-04 04:20 -29.82141 170.72255 35232 ft 486 kts 155°
2026-05-04 04:20 -29.88089 170.75979 35240 ft 487 kts 155°
2026-05-04 04:21 -29.94041 170.79709 35240 ft 487 kts 155°
2026-05-04 04:21 -30.00004 170.83449 35245 ft 488 kts 155°
2026-05-04 04:22 -30.05974 170.87199 35246 ft 489 kts 155°
2026-05-04 04:22 -30.11992 170.90985 35249 ft 490 kts 155°
2026-05-04 04:23 -30.17988 170.94763 35250 ft 492 kts 155°
2026-05-04 04:23 -30.23999 170.98559 35253 ft 493 kts 155°
2026-05-04 04:24 -30.30025 171.02366 35256 ft 494 kts 154°
2026-05-04 04:24 -30.36065 171.06188 35263 ft 495 kts 154°
2026-05-04 04:25 -30.42109 171.10019 35255 ft 496 kts 154°
2026-05-04 04:25 -30.48166 171.13864 35272 ft 497 kts 154°
2026-05-04 04:26 -30.54233 171.17720 35276 ft 498 kts 154°
2026-05-04 04:26 -30.60308 171.21586 35272 ft 498 kts 154°
2026-05-04 04:27 -30.66391 171.25462 35278 ft 499 kts 154°
2026-05-04 04:27 -30.72455 171.29335 35288 ft 496 kts 154°
2026-05-04 04:28 -30.78488 171.33193 35271 ft 493 kts 154°
2026-05-04 04:28 -30.84477 171.37027 35283 ft 490 kts 154°
2026-05-04 04:29 -30.90451 171.40855 35292 ft 490 kts 154°
2026-05-04 04:29 -30.96422 171.44688 35296 ft 491 kts 154°
2026-05-04 04:30 -31.02414 171.48539 35292 ft 493 kts 154°
2026-05-04 04:30 -31.08436 171.52416 35302 ft 495 kts 154°
2026-05-04 04:31 -31.14482 171.56315 35301 ft 497 kts 153°
2026-05-04 04:31 -31.20546 171.60232 35306 ft 499 kts 153°
2026-05-04 04:32 -31.26627 171.64164 35304 ft 500 kts 153°
2026-05-04 04:32 -31.32710 171.68105 35307 ft 500 kts 153°
2026-05-04 04:33 -31.38751 171.72023 35310 ft 500 kts 153°
2026-05-04 04:33 -31.44840 171.75979 35314 ft 500 kts 153°
2026-05-04 04:34 -31.50932 171.79943 35312 ft 501 kts 153°
2026-05-04 04:34 -31.57020 171.83909 35320 ft 501 kts 153°
2026-05-04 04:35 -31.62125 171.87240 35321 ft 501 kts 153°
2026-05-04 04:35 -31.68177 171.91195 35325 ft 501 kts 153°
2026-05-04 04:36 -31.74277 171.95187 35329 ft 502 kts 153°
2026-05-04 04:36 -31.80372 171.99181 35332 ft 502 kts 153°
2026-05-04 04:37 -31.92579 172.07197 35336 ft 502 kts 153°
2026-05-04 04:38 -31.98722 172.11243 35339 ft 503 kts 153°
2026-05-04 04:38 -32.04835 172.15274 35342 ft 504 kts 152°
2026-05-04 04:39 -32.10949 172.19312 35345 ft 504 kts 152°
2026-05-04 04:39 -32.17082 172.23368 35344 ft 505 kts 152°
2026-05-04 04:40 -32.23215 172.27432 35348 ft 506 kts 152°
2026-05-04 04:40 -32.29357 172.31506 35356 ft 507 kts 152°
2026-05-04 04:41 -32.35504 172.35590 35353 ft 507 kts 152°
2026-05-04 04:41 -32.41662 172.39690 35356 ft 508 kts 152°
2026-05-04 04:42 -32.47821 172.43795 35362 ft 508 kts 152°
2026-05-04 04:42 -32.53979 172.47907 35362 ft 509 kts 152°
2026-05-04 04:43 -32.60148 172.52033 35365 ft 509 kts 152°
2026-05-04 04:43 -32.66314 172.56162 35370 ft 509 kts 152°
2026-05-04 04:44 -32.72486 172.60302 35371 ft 509 kts 152°
2026-05-04 04:44 -32.78645 172.64444 35371 ft 509 kts 152°
2026-05-04 04:45 -32.84806 172.68591 35373 ft 509 kts 152°
2026-05-04 04:47 -33.06381 172.83165 35386 ft 510 kts 151°
2026-05-04 04:47 -33.12558 172.87352 35389 ft 511 kts 151°
2026-05-04 04:48 -33.18738 172.91549 35389 ft 511 kts 151°
2026-05-04 04:49 -33.34196 173.02077 35394 ft 512 kts 151°
2026-05-04 04:49 -33.40383 173.06303 35398 ft 512 kts 151°
2026-05-04 04:50 -33.46564 173.10532 35398 ft 512 kts 151°
2026-05-04 04:50 -33.52758 173.14778 35400 ft 512 kts 151°
2026-05-04 04:51 -33.58948 173.19027 35401 ft 513 kts 151°
2026-05-04 04:51 -33.65143 173.23287 35403 ft 513 kts 151°
2026-05-04 04:52 -33.71339 173.27555 35405 ft 514 kts 151°
2026-05-04 04:52 -33.77543 173.31835 35407 ft 514 kts 151°
2026-05-04 04:53 -33.83749 173.36126 35411 ft 515 kts 151°
2026-05-04 04:53 -33.90242 173.39551 35403 ft 508 kts 174°
2026-05-04 04:54 -33.97225 173.40297 35423 ft 505 kts 178°
2026-05-04 04:54 -34.04255 173.40981 35427 ft 508 kts 178°
2026-05-04 04:55 -34.11319 173.41769 35426 ft 511 kts 177°
2026-05-04 04:55 -34.18400 173.42616 35423 ft 511 kts 177°
2026-05-04 04:56 -34.25477 173.43473 35425 ft 511 kts 177°
2026-05-04 04:56 -34.32542 173.44323 35429 ft 510 kts 177°
2026-05-04 04:57 -34.39589 173.45168 35429 ft 508 kts 177°
2026-05-04 04:57 -34.46615 173.46011 35429 ft 507 kts 177°
2026-05-04 04:58 -34.53622 173.46856 35435 ft 505 kts 177°
2026-05-04 04:58 -34.60616 173.47698 35437 ft 505 kts 177°
2026-05-04 04:59 -34.67608 173.48542 35437 ft 505 kts 177°
2026-05-04 04:59 -34.74597 173.49387 35435 ft 505 kts 177°
2026-05-04 05:00 -34.81595 173.50235 35442 ft 505 kts 177°
2026-05-04 05:01 -34.92098 173.51510 35447 ft 506 kts 177°
2026-05-04 05:01 -34.99110 173.52364 35453 ft 507 kts 177°
2026-05-04 05:02 -35.06130 173.53219 35460 ft 507 kts 177°
2026-05-04 05:02 -35.13149 173.54075 35456 ft 507 kts 177°
2026-05-04 05:03 -35.20205 173.54940 35451 ft 506 kts 177°
2026-05-04 05:04 -35.34187 173.56655 35459 ft 504 kts 177°
2026-05-04 05:04 -35.41105 173.57505 35463 ft 502 kts 177°
2026-05-04 05:06 -35.65464 173.60510 34614 ft 512 kts 177°
2026-05-04 05:06 -35.69013 173.60947 33698 ft 513 kts 176°
2026-05-04 05:06 -35.72563 173.61388 32716 ft 513 kts 176°
2026-05-04 05:07 -35.76116 173.61830 31746 ft 514 kts 176°
2026-05-04 05:07 -35.79680 173.62273 30797 ft 515 kts 176°
2026-05-04 05:07 -35.83228 173.62717 30078 ft 509 kts 176°
2026-05-04 05:09 -36.10096 173.66069 25009 ft 464 kts 174°
2026-05-04 05:09 -36.13299 173.66469 24416 ft 460 kts 174°
2026-05-04 05:10 -36.16469 173.66865 23764 ft 457 kts 173°
2026-05-04 05:10 -36.19618 173.67261 23099 ft 452 kts 173°
2026-05-04 05:10 -36.22731 173.67652 22478 ft 447 kts 173°
2026-05-04 05:10 -36.25806 173.68039 21897 ft 442 kts 173°
2026-05-04 05:11 -36.28845 173.68422 21315 ft 437 kts 173°
2026-05-04 05:11 -36.31857 173.68801 20743 ft 433 kts 173°
2026-05-04 05:11 -36.34833 173.69176 20176 ft 429 kts 173°
2026-05-04 05:11 -36.37764 173.69636 19588 ft 418 kts 165°
2026-05-04 05:12 -36.40430 173.70956 19046 ft 411 kts 147°
2026-05-04 05:12 -36.41966 173.72370 18656 ft 405 kts 135°
2026-05-04 05:12 -36.43952 173.74799 18035 ft 399 kts 133°
2026-05-04 05:12 -36.45903 173.77237 17469 ft 397 kts 133°
2026-05-04 05:13 -36.47846 173.79653 16900 ft 394 kts 133°
2026-05-04 05:13 -36.49785 173.82043 16341 ft 391 kts 133°
2026-05-04 05:13 -36.51718 173.84411 15787 ft 389 kts 134°
2026-05-04 05:13 -36.53641 173.86758 15236 ft 387 kts 134°
2026-05-04 05:14 -36.55549 173.89083 14523 ft 379 kts 134°
2026-05-04 05:14 -36.57395 173.91332 14124 ft 361 kts 134°
2026-05-04 05:14 -36.59129 173.93446 13958 ft 338 kts 134°
2026-05-04 05:14 -36.60786 173.95468 13778 ft 330 kts 133°
2026-05-04 05:15 -36.62425 173.97472 13351 ft 331 kts 133°
2026-05-04 05:15 -36.64064 173.99477 12954 ft 329 kts 133°
2026-05-04 05:15 -36.65690 174.01468 12554 ft 328 kts 133°
2026-05-04 05:15 -36.67313 174.03456 12106 ft 327 kts 133°
2026-05-04 05:16 -36.68932 174.05439 11694 ft 326 kts 133°
2026-05-04 05:16 -36.70542 174.07414 11323 ft 323 kts 133°
2026-05-04 05:16 -36.72138 174.09371 10955 ft 321 kts 133°
2026-05-04 05:16 -36.73721 174.11314 10600 ft 318 kts 133°
2026-05-04 05:17 -36.75275 174.13221 10465 ft 308 kts 133°
2026-05-04 05:17 -36.76773 174.15060 10373 ft 296 kts 133°
2026-05-04 05:17 -36.78213 174.16832 10282 ft 286 kts 133°
2026-05-04 05:17 -36.79604 174.18543 10157 ft 277 kts 133°
2026-05-04 05:18 -36.80960 174.20213 9916 ft 272 kts 133°
2026-05-04 05:18 -36.82301 174.21865 9612 ft 270 kts 133°
2026-05-04 05:18 -36.83631 174.23506 9290 ft 269 kts 133°
2026-05-04 05:18 -36.84959 174.25142 8987 ft 266 kts 133°
2026-05-04 05:19 -36.86261 174.26747 8552 ft 262 kts 133°
2026-05-04 05:19 -36.87556 174.28346 8026 ft 262 kts 133°
2026-05-04 05:19 -36.88844 174.29936 7530 ft 259 kts 133°
2026-05-04 05:19 -36.90131 174.31527 7193 ft 260 kts 132°
2026-05-04 05:20 -36.91409 174.33107 6974 ft 256 kts 133°
2026-05-04 05:20 -36.92664 174.34659 6643 ft 251 kts 132°
2026-05-04 05:20 -36.93905 174.36193 6084 ft 252 kts 132°
2026-05-04 05:20 -36.95153 174.37741 5538 ft 253 kts 133°
2026-05-04 05:21 -36.96408 174.39301 5121 ft 255 kts 133°
2026-05-04 05:21 -36.97666 174.40857 4859 ft 253 kts 133°
2026-05-04 05:21 -36.98910 174.42395 4597 ft 251 kts 133°
2026-05-04 05:21 -37.00138 174.43917 4409 ft 246 kts 133°
2026-05-04 05:22 -37.01337 174.45403 4243 ft 239 kts 133°
2026-05-04 05:22 -37.02498 174.46847 4092 ft 232 kts 133°
2026-05-04 05:22 -37.03631 174.48254 3960 ft 227 kts 133°
2026-05-04 05:22 -37.04739 174.49632 3917 ft 222 kts 133°
2026-05-04 05:23 -37.05825 174.50982 3892 ft 218 kts 133°
2026-05-04 05:23 -37.06880 174.52294 3899 ft 209 kts 130°
2026-05-04 05:23 -37.07570 174.53839 3670 ft 204 kts 97°
2026-05-04 05:23 -37.07442 174.55581 3479 ft 201 kts 75°
2026-05-04 05:24 -37.07064 174.57269 3300 ft 202 kts 72°
2026-05-04 05:24 -37.06625 174.58942 3032 ft 201 kts 71°
2026-05-04 05:24 -37.06177 174.60577 2771 ft 195 kts 71°
2026-05-04 05:24 -37.05748 174.62127 2515 ft 180 kts 71°
2026-05-04 05:25 -37.05361 174.63534 2278 ft 164 kts 71°
2026-05-04 05:25 -37.05001 174.64842 2063 ft 157 kts 71°
2026-05-04 05:25 -37.04649 174.66123 1852 ft 152 kts 71°
2026-05-04 05:25 -37.04315 174.67337 1671 ft 144 kts 71°
2026-05-04 05:26 -37.03991 174.68516 1458 ft 142 kts 71°
2026-05-04 05:26 -37.03672 174.69672 1285 ft 140 kts 71°
2026-05-04 05:26 -37.03356 174.70826 1089 ft 140 kts 72°
2026-05-04 05:26 -37.03040 174.71983 894 ft 141 kts 71°
2026-05-04 05:27 -37.02718 174.73130 684 ft 138 kts 71°
2026-05-04 05:28 -37.00982 174.79424 30 ft 31 kts 65°
2026-05-04 05:29 -37.00889 174.79602 30 ft 20 kts 48°
2026-05-04 05:29 -37.00808 174.79694 30 ft 11 kts 41°
2026-05-04 05:29 -37.00764 174.79726 30 ft 6 kts
2026-05-04 05:29 -37.00727 174.79692 30 ft 7 kts 295°
2026-05-04 05:31 -37.00944 174.78870 30 ft 16 kts 251°
2026-05-04 05:31 -37.00980 174.78741 30 ft 16 kts 251°
2026-05-04 05:32 -37.01015 174.78612 30 ft 16 kts 251°
2026-05-04 05:32 -37.01049 174.78490 30 ft 14 kts 251°
2026-05-04 05:32 -37.01077 174.78391 30 ft 9 kts 253°
2026-05-04 05:33 -37.01016 174.78273 30 ft 10 kts 330°
2026-05-04 05:33 -37.00965 174.78220 30 ft 9 kts 310°
2026-05-04 05:33 -37.00929 174.78149 30 ft 10 kts 300°
2026-05-04 05:33 -37.00895 174.78076 30 ft 9 kts 303°
2026-05-04 05:34 -37.00844 174.78031 30 ft 7 kts 340°
2026-05-04 05:34 -37.00809 174.78039 30 ft 3 kts 37°
2026-05-04 05:34 -37.00799 174.78057 30 ft 4 kts 59°
2026-05-04 05:34 -37.00786 174.78095 30 ft 4 kts 68°
2026-05-04 05:35 -37.00780 174.78114 30 ft 1 kts 69°
2026-05-04 05:35 -37.00779 174.78117 30 ft 0 kts 69°